Location: Newark
(45.2500°N, 7.5833°E)
Time: 23:49:13
(UTC+00:00)

A-11 Canister half - Pass Details

Date: 01 February 2020
Orbit: 1524 x 1684 km, 47.3° (Epoch: 24 February)

Event Time Altitude Azimuth Distance (km) Brightness Sun altitude
Rises 13:42:36 0° 202° (SSW) 4,668 13.0 22.0°
Reaches altitude 10° 13:46:01 10° 193° (SSW) 3,682 12.6 21.7°
Maximum altitude 13:53:54 33° 134° (SE) 2,363 10.3 20.9°
Drops below altitude 10° 14:01:49 10° 76° (ENE) 3,720 10.7 20.1°
Sets 14:05:17 0° 67° (ENE) 4,723 11.1 19.8°
